Location: Boca de Tacagua
(10.5333°N, 66.9833°W)
Time: 18:03:00
(UTC+00:00)

XW-2D - Pass Details

Date: 05 April 2023
Orbit: 475 x 489 km, 97.5° (Epoch: 01 June)

Event Time Altitude Azimuth Distance (km) Brightness Sun altitude
Rises 09:59:20 0° 26° (NNE) 2,554 ? -6.6°
Reaches altitude 10° 10:01:34 10° 37° (NE) 1,678 ? -6.0°
Maximum altitude 10:04:48 31° 100° (E) 887 ? -5.2°
Drops below altitude 10° 10:08:02 10° 164° (SSE) 1,688 ? -4.4°
Sets 10:10:16 0° 174° (S) 2,573 ? -3.9°
